SCP
1 1 1 1 1 1 0 0 0 0 0 0 0 0 0 0 0 0 0 0 0 0 0 0 0 0 0 0 0 0 0 0
1 1 1 1 1 0 0 0 0 0 0 0 0 0 0 0 0 0 0 0 -0 0 0 0 0 0 0 0 0 0 0 0
1 0 1 1 1 0 0 0 0 0 0 0 0 0 0 0 0 0 0 0 -0 0 0 0 0 0 0 0 0 0 0 0
1 1 0 0 0 0 0 0 0 0 0 0 0 0 0 0 0 0 0 0 -0 -0 0 0 0 0 0 0 0 0 0 0
1 0 0 0 0 0 0 0 0 0 0 0 0 0 0 0 0 0 0 0 0 0 -0 0 0 0 0 0 0 0 0 0
1 0 0 0 0 0 0 0 0 0 0 0 0 0 0 0 0 0 0 0 0 0 0 0 0 0 0 0 0 0 0 0
0 0 0 0 0 0 0 0 0 0 0 0 0 0 0 0 0 0 0 0 0 0 0 0 0 0 0 0 0 0 0 0
0 0 0 0 0 0 0 0 0 0 0 0 0 0 0 0 0 0 0 0 0 0 0 0 0 0 0 0 0 0 0 0
0 0 0 0 0 0 0 0 0 0 0 0 0 0 0 0 0 0 0 0 0 0 0 0 0 0 0 0 0 0 0 0
0 0 0 0 0 0 0 0 0 0 0 0 0 0 0 0 0 0 0 0 0 0 0 0 0 0 0 0 0 0 0 0
0 0 0 0 0 0 0 0 0 0 0 0 0 0 0 0 0 0 0 0 0 0 0 0 0 0 0 0 0 0 0 0
0 0 0 0 0 0 0 0 0 0 0 0 0 0 0 0 0 0 0 0 0 0 0 0 0 0 0 0 0 0 0 0
0 0 0 0 0 0 0 0 0 0 0 0 0 0 0 0 0 0 0 0 0 0 0 0 0 0 0 0 0 0 0 0
0 0 -0 -0 0 0 0 0 0 0 0 0 0 0 0 0 0 0 0 0 0 0 0 0 0 0 0 0 0 0 0 0
0 -0 -0 -0 0 0 0 0 0 0 0 0 0 0 0 0 0 0 0 0 0 0 0 0 0 0 0 0 0 0 0 0
0 -0 -0 -0 0 0 0 0 0 0 -0 0 0 -0 0 0 0 0 0 0 0 0 0 0 0 0 0 0 0 0 0 0
0 0 -0 0 0 0 0 -0 0 -0 0 -0 0 0 0 0 0 0 0 0 0 0 0 0 0 0 0 0 0 0 0 0
0 0 0 0 0 -0 -0 -0 -0 -0 -0 -0 -0 0 0 0 0 0 0 0 0 0 0 0 0 0 0 0 0 0 0 0
0 0 0 0 0 0 0 -0 -0 -0 -0 -0 -0 -0 0 0 0 0 0 0 0 0 0 0 0 0 0 0 0 0 0 0
0 0 0 0 0 0 0 0 0 0 0 0 0 0 -0 0 0 0 0 0 0 0 0 0 0 0 0 0 0 0 0 0
Wind_Speed_500mb
24 24 27 30 34 38 41 43 45 47 47 48 54 46 43 46 49 42 43 48 51 52 51 49 44 46 43 40 36 34 33 32
26 26 29 34 33 33 40 43 45 47 48 49 43 54 39 37 38 40 45 50 52 53 52 49 47 45 42 37 33 29 28 27
26 26 26 33 37 36 36 41 46 48 50 55 53 50 61 53 45 41 43 45 53 57 54 51 49 45 41 35 30 29 27 27
26 25 23 31 39 36 35 37 45 50 50 47 57 51 43 47 61 55 54 51 58 55 55 54 52 48 39 32 29 26 25 27
28 25 22 32 37 39 38 35 35 44 48 58 58 59 42 38 53 52 56 55 56 57 58 58 56 50 44 37 28 26 24 29
31 28 25 33 36 39 41 41 41 38 44 56 73 58 44 53 56 62 61 62 61 64 64 59 52 43 40 34 28 26 28 32
33 28 28 34 37 39 43 43 42 46 46 59 56 60 58 62 62 69 67 62 69 71 66 59 50 42 40 29 22 24 28 34
35 30 32 32 35 39 42 47 44 49 52 53 58 71 74 66 64 76 68 62 66 69 66 59 49 45 39 30 25 23 31 37
38 34 32 29 30 32 35 41 46 46 45 44 53 69 83 72 74 70 69 62 64 70 66 56 51 50 42 34 28 21 33 34
38 36 31 29 29 29 31 36 39 43 39 42 55 65 84 75 77 74 72 64 67 71 65 57 54 52 45 36 31 24 28 30
42 37 35 29 29 31 31 34 35 41 49 51 83 88 75 68 78 80 73 65 74 75 66 61 59 55 46 42 36 30 25 23
43 40 36 31 32 34 32 33 31 33 36 35 48 70 83 77 77 75 73 73 80 77 68 61 58 55 47 42 39 34 28 24
51 46 40 36 38 41 38 36 33 35 35 34 28 56 80 80 77 64 67 73 79 81 71 65 63 56 49 45 41 36 33 28
57 50 41 40 38 42 43 38 31 35 30 23 33 42 66 76 75 72 72 74 81 84 77 72 66 62 51 41 27 30 39 33
66 53 44 38 38 41 37 32 32 33 28 30 20 30 63 64 64 69 70 75 80 87 83 83 74 69 63 34 22 20 39 43
65 54 44 38 42 44 38 38 37 37 36 36 33 32 38 64 48 50 61 67 72 80 82 82 79 72 67 64 47 33 26 24
69 55 46 38 39 43 39 33 33 34 33 35 36 43 45 51 59 64 59 62 68 75 80 87 83 83 78 68 52 42 34 33
69 59 48 39 37 42 38 33 35 30 34 35 38 38 45 52 61 69 70 67 65 67 70 78 84 83 76 74 69 61 48 44
70 62 52 41 36 41 39 34 33 32 30 29 35 37 43 54 53 65 76 74 68 70 75 72 82 87 83 76 73 70 60 52
73 67 54 40 33 34 39 37 37 35 35 36 41 43 41 42 56 47 50 76 72 71 73 72 75 80 81 76 71 71 66 67
Wind_Direction_500mb
212 224 227 223 230 226 221 220 218 216 213 214 197 200 195 193 191 188 191 191 192 194 187 180 175 181 180 181 184 186 187 189
215 225 225 227 224 221 221 218 217 214 212 209 206 193 193 195 194 191 200 201 198 194 187 177 177 179 179 180 183 189 197 193
225 225 228 221 216 220 222 220 220 219 212 209 213 213 208 195 193 191 200 198 195 192 185 176 173 176 178 181 185 194 196 193
229 229 226 209 214 218 216 221 219 222 220 209 206 209 219 213 214 203 202 196 197 190 181 175 173 175 179 178 178 181 191 194
230 234 221 211 211 213 214 215 222 222 222 216 207 200 212 217 207 200 193 190 194 185 178 175 180 178 177 177 180 188 195 187
230 228 221 215 213 216 219 222 220 222 231 219 201 210 201 184 195 195 193 190 193 184 180 181 181 179 178 178 185 197 193 178
228 230 231 220 215 218 219 215 226 230 224 205 215 212 205 201 204 195 196 193 194 189 185 184 183 180 178 178 190 192 183 176
226 233 233 225 218 219 219 213 225 233 225 220 226 219 214 208 197 193 194 193 200 197 189 189 186 182 179 176 178 178 182 177
222 231 228 223 214 208 211 216 223 227 226 223 220 216 209 201 199 204 196 190 202 197 192 192 187 182 181 176 173 175 182 178
224 228 226 217 209 206 211 225 223 220 224 225 220 215 204 201 207 201 195 194 200 199 193 192 190 187 181 181 174 179 182 184
227 225 229 215 209 204 209 223 223 223 228 232 216 205 203 209 206 200 196 195 198 197 193 197 191 188 187 185 183 183 183 184
224 225 226 213 212 210 214 225 220 213 217 219 217 215 201 200 196 198 199 196 196 197 198 196 195 190 191 191 190 192 194 194
219 222 220 211 210 209 208 222 207 212 214 225 226 226 212 207 215 209 200 198 199 200 197 195 192 192 191 192 194 198 201 205
218 221 222 214 213 204 205 217 215 209 214 230 223 222 206 211 212 205 198 200 201 201 199 195 196 195 195 181 181 204 212 207
217 218 221 215 205 204 210 209 206 199 194 209 222 219 209 195 209 189 195 204 203 202 203 202 196 197 202 188 170 202 205 213
213 215 218 212 203 206 210 204 198 197 195 198 203 180 194 198 201 198 202 204 207 206 209 209 211 201 200 208 206 207 185 207
208 211 216 213 201 207 206 209 209 211 202 202 203 194 188 186 194 199 206 205 210 211 210 211 213 212 207 203 209 211 217 212
205 208 213 211 201 202 207 213 210 209 200 200 208 211 214 210 203 206 204 205 208 212 215 216 217 221 220 215 214 216 220 219
202 205 210 209 203 198 207 215 218 219 217 226 219 226 228 228 222 212 210 213 207 211 215 217 221 224 223 225 230 234 234 239
196 201 205 206 201 197 201 213 220 222 227 232 238 245 239 230 222 230 219 212 211 217 216 218 219 229 226 226 230 236 242 242
Wind_Speed_850mb
24 24 27 30 34 38 41 43 45 47 47 48 54 46 43 46 49 42 43 48 51 52 51 49 44 46 43 40 36 34 33 32
26 26 29 34 33 33 40 43 45 47 48 49 43 54 39 37 38 40 45 50 52 53 52 49 47 45 42 37 33 29 28 27
26 26 26 33 37 36 36 41 46 48 50 55 53 50 61 53 45 41 43 45 53 57 54 51 49 45 41 35 30 29 27 27
26 25 23 31 39 36 35 37 45 50 50 47 57 51 43 47 61 55 54 51 58 55 55 54 52 48 39 32 29 26 25 27
28 25 22 32 37 39 38 35 35 44 48 58 58 59 42 38 53 52 56 55 56 57 58 58 56 50 44 37 28 26 24 29
31 28 25 33 36 39 41 41 41 38 44 56 73 58 44 53 56 62 61 62 61 64 64 59 52 43 40 34 28 26 28 32
33 28 28 34 37 39 43 43 42 46 46 59 56 60 58 62 62 69 67 62 69 71 66 59 50 42 40 29 22 24 28 34
35 30 32 32 35 39 42 47 44 49 52 53 58 71 74 66 64 76 68 62 66 69 66 59 49 45 39 30 25 23 31 37
38 34 32 29 30 32 35 41 46 46 45 44 53 69 83 72 74 70 69 62 64 70 66 56 51 50 42 34 28 21 33 34
38 36 31 29 29 29 31 36 39 43 39 42 55 65 84 75 77 74 72 64 67 71 65 57 54 52 45 36 31 24 28 30
42 37 35 29 29 31 31 34 35 41 49 51 83 88 75 68 78 80 73 65 74 75 66 61 59 55 46 42 36 30 25 23
43 40 36 31 32 34 32 33 31 33 36 35 48 70 83 77 77 75 73 73 80 77 68 61 58 55 47 42 39 34 28 24
51 46 40 36 38 41 38 36 33 35 35 34 28 56 80 80 77 64 67 73 79 81 71 65 63 56 49 45 41 36 33 28
57 50 41 40 38 42 43 38 31 35 30 23 33 42 66 76 75 72 72 74 81 84 77 72 66 62 51 41 27 30 39 33
66 53 44 38 38 41 37 32 32 33 28 30 20 30 63 64 64 69 70 75 80 87 83 83 74 69 63 34 22 20 39 43
65 54 44 38 42 44 38 38 37 37 36 36 33 32 38 64 48 50 61 67 72 80 82 82 79 72 67 64 47 33 26 24
69 55 46 38 39 43 39 33 33 34 33 35 36 43 45 51 59 64 59 62 68 75 80 87 83 83 78 68 52 42 34 33
69 59 48 39 37 42 38 33 35 30 34 35 38 38 45 52 61 69 70 67 65 67 70 78 84 83 76 74 69 61 48 44
70 62 52 41 36 41 39 34 33 32 30 29 35 37 43 54 53 65 76 74 68 70 75 72 82 87 83 76 73 70 60 52
73 67 54 40 33 34 39 37 37 35 35 36 41 43 41 42 56 47 50 76 72 71 73 72 75 80 81 76 71 71 66 67
Wind_Direction_850mb
212 224 227 223 230 226 221 220 218 216 213 214 197 200 195 193 191 188 191 191 192 194 187 180 175 181 180 181 184 186 187 189
215 225 225 227 224 221 221 218 217 214 212 209 206 193 193 195 194 191 200 201 198 194 187 177 177 179 179 180 183 189 197 193
225 225 228 221 216 220 222 220 220 219 212 209 213 213 208 195 193 191 200 198 195 192 185 176 173 176 178 181 185 194 196 193
229 229 226 209 214 218 216 221 219 222 220 209 206 209 219 213 214 203 202 196 197 190 181 175 173 175 179 178 178 181 191 194
230 234 221 211 211 213 214 215 222 222 222 216 207 200 212 217 207 200 193 190 194 185 178 175 180 178 177 177 180 188 195 187
230 228 221 215 213 216 219 222 220 222 231 219 201 210 201 184 195 195 193 190 193 184 180 181 181 179 178 178 185 197 193 178
228 230 231 220 215 218 219 215 226 230 224 205 215 212 205 201 204 195 196 193 194 189 185 184 183 180 178 178 190 192 183 176
226 233 233 225 218 219 219 213 225 233 225 220 226 219 214 208 197 193 194 193 200 197 189 189 186 182 179 176 178 178 182 177
222 231 228 223 214 208 211 216 223 227 226 223 220 216 209 201 199 204 196 190 202 197 192 192 187 182 181 176 173 175 182 178
224 228 226 217 209 206 211 225 223 220 224 225 220 215 204 201 207 201 195 194 200 199 193 192 190 187 181 181 174 179 182 184
227 225 229 215 209 204 209 223 223 223 228 232 216 205 203 209 206 200 196 195 198 197 193 197 191 188 187 185 183 183 183 184
224 225 226 213 212 210 214 225 220 213 217 219 217 215 201 200 196 198 199 196 196 197 198 196 195 190 191 191 190 192 194 194
219 222 220 211 210 209 208 222 207 212 214 225 226 226 212 207 215 209 200 198 199 200 197 195 192 192 191 192 194 198 201 205
218 221 222 214 213 204 205 217 215 209 214 230 223 222 206 211 212 205 198 200 201 201 199 195 196 195 195 181 181 204 212 207
217 218 221 215 205 204 210 209 206 199 194 209 222 219 209 195 209 189 195 204 203 202 203 202 196 197 202 188 170 202 205 213
213 215 218 212 203 206 210 204 198 197 195 198 203 180 194 198 201 198 202 204 207 206 209 209 211 201 200 208 206 207 185 207
208 211 216 213 201 207 206 209 209 211 202 202 203 194 188 186 194 199 206 205 210 211 210 211 213 212 207 203 209 211 217 212
205 208 213 211 201 202 207 213 210 209 200 200 208 211 214 210 203 206 204 205 208 212 215 216 217 221 220 215 214 216 220 219
202 205 210 209 203 198 207 215 218 219 217 226 219 226 228 228 222 212 210 213 207 211 215 217 221 224 223 225 230 234 234 239
196 201 205 206 201 197 201 213 220 222 227 232 238 245 239 230 222 230 219 212 211 217 216 218 219 229 226 226 230 236 242 242